| time (UTC) | temp F | wind direction | speed MPH | gust MPH | rain 1hr in | rain 24hr in | rain mn in | humidity % | barometer mb |
| 20260905062532 | 68 | 7 | 0.0 | 1.0 | 0.00 | 0.00 | 0.00 | 99 | 1015.0 |
| 20260905062027 | 68 | 117 | 0.0 | 1.0 | 0.00 | 0.00 | 0.00 | 99 | 1015.1 |
| 20260905061523 | 68 | 6 | 0.0 | 1.0 | 0.00 | 0.00 | 0.00 | 99 | 1015.1 |
| 20260905061021 | 68 | 50 | 0.0 | 1.0 | 0.00 | 0.00 | 0.00 | 99 | 1015.2 |
| 20260905060518 | 68 | 32 | 0.0 | 1.0 | 0.00 | 0.00 | 0.00 | 99 | 1015.3 |
| 20260905060013 | 69 | 75 | 0.0 | 1.0 | 0.00 | 0.00 | 0.00 | 99 | 1015.3 |
| 20260905055511 | 69 | 349 | 0.0 | 2.0 | 0.00 | 0.00 | 0.00 | 99 | 1015.3 |
| 20260905055006 | 69 | 44 | 0.0 | 2.0 | 0.00 | 0.00 | 0.00 | 99 | 1015.4 |
| 20260905054502 | 69 | 75 | 0.0 | 2.0 | 0.00 | 0.00 | 0.00 | 99 | 1015.4 |
| 20260905053957 | 69 | 51 | 1.0 | 2.0 | 0.00 | 0.00 | 0.00 | 99 | 1015.6 |
| 20260905053451 | 69 | 45 | 0.0 | 1.0 | 0.00 | 0.00 | 0.00 | 99 | 1015.7 |
| 20260905052948 | 69 | 62 | 0.0 | 0.0 | 0.00 | 0.00 | 0.00 | 99 | 1015.6 |
| 20260905052447 | 69 | 322 | 0.0 | 1.0 | 0.00 | 0.00 | 0.00 | 99 | 1015.6 |
| 20260905051946 | 69 | 37 | 0.0 | 3.0 | 0.00 | 0.00 | 0.00 | 99 | 1015.4 |
| 20260905051442 | 70 | 44 | 2.0 | 2.0 | 0.00 | 0.00 | 0.00 | 99 | 1015.5 |
| 20260905050939 | 70 | 25 | 0.0 | 2.0 | 0.00 | 0.00 | 0.00 | 99 | 1015.0 |
| 20260905050435 | 70 | 56 | 1.0 | 2.0 | 0.00 | 0.00 | 0.00 | 99 | 1015.5 |
| 20260905045930 | 70 | 43 | 0.0 | 1.0 | 0.00 | 0.00 | 0.00 | 99 | 1015.5 |
| 20260905045420 | 70 | 343 | 0.0 | 1.0 | 0.00 | 0.00 | 0.00 | 99 | 1015.5 |
| 20260905044915 | 70 | 75 | 0.0 | 3.0 | 0.00 | 0.00 | 0.00 | 99 | 1015.5 |
| 20260905044410 | 70 | 7 | 0.0 | 2.0 | 0.00 | 0.00 | 0.00 | 99 | 1015.6 |
| 20260905043909 | 70 | 352 | 1.0 | 3.0 | 0.00 | 0.00 | 0.00 | 99 | 1015.4 |
| 20260905043404 | 71 | 55 | 0.0 | 2.0 | 0.00 | 0.00 | 0.00 | 99 | 1015.5 |
| 20260905042904 | 71 | 345 | 2.0 | 3.0 | 0.00 | 0.00 | 0.00 | 99 | 1015.3 |
| 20260905042359 | 71 | 344 | 1.0 | 3.0 | 0.00 | 0.00 | 0.00 | 99 | 1015.3 |
| 20260905041853 | 71 | 17 | 0.0 | 2.0 | 0.00 | 0.00 | 0.00 | 99 | 1015.3 |
| 20260905041349 | 71 | 298 | 0.0 | 3.0 | 0.00 | 0.00 | 0.00 | 99 | 1015.5 |
| 20260905040844 | 71 | 347 | 1.0 | 3.0 | 0.00 | 0.00 | 0.00 | 99 | 1015.6 |
| 20260905040343 | 71 | 267 | 0.0 | 2.0 | 0.00 | 0.00 | 0.00 | 99 | 1015.4 |
| 20260905035842 | 71 | 82 | 0.0 | 2.0 | 0.00 | 0.32 | 0.32 | 99 | 1015.7 |
| 20260905035338 | 71 | 75 | 0.0 | 2.0 | 0.00 | 0.32 | 0.32 | 99 | 1015.5 |
| 20260905034834 | 71 | 62 | 0.0 | 1.0 | 0.00 | 0.32 | 0.32 | 99 | 1015.8 |
| 20260905034330 | 71 | 43 | 1.0 | 2.0 | 0.00 | 0.32 | 0.32 | 99 | 1015.7 |
| 20260905033828 | 71 | 62 | 0.0 | 3.0 | 0.00 | 0.32 | 0.32 | 99 | 1015.7 |
| 20260905033324 | 71 | 119 | 0.0 | 2.0 | 0.00 | 0.32 | 0.32 | 98 | 1015.8 |
| 20260905032823 | 71 | 15 | 2.0 | 2.0 | 0.00 | 0.32 | 0.32 | 98 | 1015.9 |
| 20260905032319 | 71 | 27 | 1.0 | 2.0 | 0.00 | 0.32 | 0.32 | 98 | 1015.7 |
| 20260905031814 | 71 | 62 | 0.0 | 2.0 | 0.00 | 0.32 | 0.32 | 98 | 1015.9 |
| 20260905031310 | 71 | 69 | 0.0 | 1.0 | 0.00 | 0.32 | 0.32 | 98 | 1016.0 |
| 20260905030805 | 71 | 69 | 0.0 | 1.0 | 0.00 | 0.32 | 0.32 | 98 | 1016.2 |
| 20260905030300 | 72 | 142 | 0.0 | 1.0 | 0.00 | 0.32 | 0.32 | 98 | 1016.4 |
| 20260905025800 | 72 | 89 | 0.0 | 2.0 | 0.00 | 0.32 | 0.32 | 98 | 1016.3 |
| 20260905025255 | 72 | 89 | 0.0 | 2.0 | 0.00 | 0.32 | 0.32 | 98 | 1016.4 |
| 20260905024751 | 72 | 62 | 0.0 | 1.0 | 0.00 | 0.32 | 0.32 | 98 | 1016.3 |
| 20260905024246 | 72 | 76 | 0.0 | 1.0 | 0.00 | 0.32 | 0.32 | 98 | 1016.3 |
| 20260905023741 | 72 | 89 | 0.0 | 1.0 | 0.00 | 0.32 | 0.32 | 98 | 1016.4 |
| 20260905023236 | 72 | 78 | 1.0 | 2.0 | 0.00 | 0.32 | 0.32 | 98 | 1016.4 |
| 20260905022735 | 72 | 28 | 0.0 | 2.0 | 0.00 | 0.32 | 0.32 | 98 | 1016.2 |
| 20260905022231 | 72 | 37 | 0.0 | 1.0 | 0.00 | 0.32 | 0.32 | 98 | 1016.0 |
| 20260905021725 | 72 | 62 | 0.0 | 1.0 | 0.00 | 0.32 | 0.32 | 98 | 1016.1 |
| 20260905021220 | 72 | 60 | 0.0 | 1.0 | 0.00 | 0.32 | 0.32 | 98 | 1016.3 |
| 20260905020715 | 72 | 89 | 0.0 | 0.0 | 0.00 | 0.32 | 0.32 | 98 | 1016.2 |
| 20260905020210 | 72 | 124 | 0.0 | 1.0 | 0.00 | 0.32 | 0.32 | 98 | 1016.0 |
| 20260905015709 | 72 | 89 | 0.0 | 2.0 | 0.00 | 0.32 | 0.32 | 98 | 1016.2 |
| 20260905015209 | 72 | 38 | 1.0 | 2.0 | 0.00 | 0.32 | 0.32 | 98 | 1016.1 |
| 20260905014707 | 72 | 129 | 0.0 | 0.0 | 0.00 | 0.32 | 0.32 | 97 | 1016.0 |
| 20260905014203 | 72 | 89 | 0.0 | 0.0 | 0.00 | 0.32 | 0.32 | 97 | 1016.1 |
| 20260905013659 | 72 | 113 | 0.0 | 1.0 | 0.00 | 0.32 | 0.32 | 97 | 1016.0 |
| 20260905013154 | 72 | 122 | 0.0 | 1.0 | 0.00 | 0.32 | 0.32 | 97 | 1016.2 |
| 20260905012650 | 72 | 124 | 0.0 | 1.0 | 0.00 | 0.32 | 0.32 | 97 | 1016.0 |
| 20260905012146 | 72 | 124 | 0.0 | 0.0 | 0.00 | 0.32 | 0.32 | 97 | 1016.1 |
| 20260905011642 | 72 | 124 | 0.0 | 1.0 | 0.00 | 0.32 | 0.32 | 97 | 1016.1 |
| 20260905011132 | 72 | 119 | 0.0 | 1.0 | 0.00 | 0.32 | 0.32 | 97 | 1016.0 |
| 20260905010626 | 72 | 104 | 0.0 | 1.0 | 0.00 | 0.32 | 0.32 | 97 | 1016.1 |
| 20260905010123 | 72 | 75 | 0.0 | 1.0 | 0.00 | 0.32 | 0.32 | 97 | 1016.1 |
| 20260905005618 | 72 | 117 | 0.0 | 1.0 | 0.00 | 0.32 | 0.32 | 97 | 1016.0 |
| 20260905005114 | 72 | 142 | 0.0 | 0.0 | 0.00 | 0.32 | 0.32 | 96 | 1015.9 |
| 20260905004608 | 72 | 142 | 0.0 | 0.0 | 0.00 | 0.32 | 0.32 | 96 | 1015.9 |
| 20260905004103 | 72 | 142 | 0.0 | 0.0 | 0.00 | 0.32 | 0.32 | 96 | 1015.8 |
| 20260905003559 | 72 | 142 | 0.0 | 0.0 | 0.00 | 0.32 | 0.32 | 96 | 1015.9 |
| 20260905003054 | 72 | 142 | 0.0 | 1.0 | 0.00 | 0.32 | 0.32 | 95 | 1015.7 |
| 20260905002550 | 73 | 103 | 0.0 | 0.0 | 0.00 | 0.32 | 0.32 | 95 | 1015.8 |
| 20260905002050 | 73 | 103 | 0.0 | 1.0 | 0.00 | 0.32 | 0.32 | 95 | 1015.7 |
| 20260905001545 | 73 | 129 | 0.0 | 1.0 | 0.00 | 0.32 | 0.32 | 95 | 1015.6 |
| 20260905001038 | 73 | 117 | 0.0 | 2.0 | 0.00 | 0.32 | 0.32 | 94 | 1015.9 |
| 20260905000534 | 73 | 103 | 0.0 | 1.0 | 0.00 | 0.32 | 0.32 | 94 | 1015.8 |
| 20260905000030 | 74 | 104 | 0.0 | 1.0 | 0.00 | 0.32 | 0.32 | 93 | 1015.7 |
| 20260904235525 | 74 | 104 | 0.0 | 1.0 | 0.00 | 0.32 | 0.32 | 93 | 1015.7 |
| 20260904235025 | 74 | 117 | 0.0 | 0.0 | 0.00 | 0.32 | 0.32 | 92 | 1015.7 |
| 20260904234525 | 75 | 117 | 0.0 | 1.0 | 0.00 | 0.32 | 0.32 | 91 | 1015.6 |
| 20260904234021 | 75 | 55 | 0.0 | 1.0 | 0.00 | 0.32 | 0.32 | 91 | 1015.7 |
| 20260904233516 | 75 | 25 | 0.0 | 1.0 | 0.00 | 0.32 | 0.32 | 91 | 1015.6 |
| 20260904233012 | 75 | 117 | 0.0 | 1.0 | 0.00 | 0.32 | 0.32 | 90 | 1015.5 |
| 20260904232508 | 75 | 135 | 0.0 | 0.0 | 0.00 | 0.32 | 0.32 | 90 | 1015.5 |
| 20260904232005 | 75 | 124 | 0.0 | 1.0 | 0.00 | 0.32 | 0.32 | 90 | 1015.3 |
| 20260904231500 | 76 | 68 | 0.0 | 1.0 | 0.00 | 0.32 | 0.32 | 89 | 1015.5 |
| 20260904230954 | 76 | 329 | 0.0 | 1.0 | 0.00 | 0.32 | 0.32 | 88 | 1015.3 |
| 20260904230453 | 76 | 37 | 0.0 | 2.0 | 0.00 | 0.32 | 0.32 | 88 | 1015.3 |
| 20260904225949 | 76 | 41 | 0.0 | 2.0 | 0.00 | 0.32 | 0.32 | 88 | 1015.4 |
| 20260904225446 | 76 | 309 | 0.0 | 1.0 | 0.00 | 0.32 | 0.32 | 88 | 1015.2 |
| 20260904224940 | 76 | 6 | 0.0 | 2.0 | 0.00 | 0.32 | 0.32 | 88 | 1015.1 |
| 20260904224437 | 76 | 134 | 0.0 | 2.0 | 0.00 | 0.32 | 0.32 | 88 | 1015.1 |
| 20260904223936 | 76 | 22 | 0.0 | 1.0 | 0.00 | 0.32 | 0.32 | 87 | 1015.1 |
| 20260904223435 | 77 | 7 | 1.0 | 5.0 | 0.00 | 0.32 | 0.32 | 87 | 1014.9 |
| 20260904222931 | 77 | 154 | 0.0 | 3.0 | 0.00 | 0.32 | 0.32 | 86 | 1014.9 |
| 20260904222427 | 77 | 316 | 2.0 | 3.0 | 0.00 | 0.32 | 0.32 | 85 | 1015.1 |
| 20260904221926 | 77 | 13 | 0.0 | 2.0 | 0.00 | 0.32 | 0.32 | 87 | 1014.9 |
| 20260904221421 | 77 | 322 | 2.0 | 4.0 | 0.00 | 0.32 | 0.32 | 86 | 1014.8 |
| 20260904220917 | 76 | 29 | 0.0 | 4.0 | 0.00 | 0.32 | 0.32 | 86 | 1014.9 |
| 20260904220416 | 77 | 31 | 2.0 | 3.0 | 0.00 | 0.32 | 0.32 | 87 | 1014.7 |
| 20260904215911 | 76 | 19 | 1.0 | 3.0 | 0.00 | 0.32 | 0.32 | 87 | 1014.9 |
| 20260904215406 | 76 | 352 | 2.0 | 3.0 | 0.00 | 0.32 | 0.32 | 87 | 1015.0 |
| 20260904214902 | 76 | 18 | 0.0 | 4.0 | 0.00 | 0.32 | 0.32 | 87 | 1014.7 |
| 20260904214358 | 76 | 47 | 1.0 | 3.0 | 0.00 | 0.32 | 0.32 | 86 | 1014.8 |
| 20260904213856 | 77 | 24 | 4.0 | 4.0 | 0.00 | 0.32 | 0.32 | 85 | 1014.9 |
| 20260904213351 | 77 | 45 | 0.0 | 3.0 | 0.00 | 0.32 | 0.32 | 85 | 1015.0 |
| 20260904212848 | 77 | 354 | 1.0 | 4.0 | 0.00 | 0.32 | 0.32 | 85 | 1014.9 |
| 20260904212347 | 77 | 289 | 0.0 | 4.0 | 0.00 | 0.32 | 0.32 | 85 | 1014.7 |
| 20260904211843 | 78 | 156 | 3.0 | 3.0 | 0.00 | 0.32 | 0.32 | 84 | 1014.8 |
| 20260904211337 | 78 | 28 | 2.0 | 3.0 | 0.00 | 0.32 | 0.32 | 83 | 1014.7 |
| 20260904210832 | 79 | 12 | 0.0 | 4.0 | 0.00 | 0.32 | 0.32 | 85 | 1014.6 |
| 20260904210326 | 78 | 103 | 2.0 | 3.0 | 0.00 | 0.32 | 0.32 | 84 | 1014.5 |
| 20260904205823 | 79 | 180 | 0.0 | 3.0 | 0.00 | 0.32 | 0.32 | 84 | 1014.4 |
| 20260904205318 | 78 | 257 | 0.0 | 3.0 | 0.00 | 0.32 | 0.32 | 84 | 1014.6 |
| 20260904204815 | 78 | 124 | 0.0 | 3.0 | 0.00 | 0.32 | 0.32 | 87 | 1014.6 |
| 20260904204310 | 78 | 12 | 2.0 | 4.0 | 0.00 | 0.32 | 0.32 | 86 | 1014.4 |
| 20260904203807 | 78 | 241 | 2.0 | 3.0 | 0.00 | 0.32 | 0.32 | 85 | 1014.6 |
| 20260904203302 | 78 | 35 | 1.0 | 4.0 | 0.00 | 0.32 | 0.32 | 85 | 1014.6 |
| 20260904202758 | 78 | 235 | 0.0 | 5.0 | 0.00 | 0.32 | 0.32 | 85 | 1014.6 |
| 20260904202254 | 79 | 132 | 0.0 | 4.0 | 0.00 | 0.32 | 0.32 | 83 | 1014.7 |
| 20260904201744 | 79 | 282 | 0.0 | 3.0 | 0.00 | 0.32 | 0.32 | 85 | 1014.7 |
| 20260904201243 | 79 | 214 | 1.0 | 3.0 | 0.00 | 0.32 | 0.32 | 84 | 1014.6 |
| 20260904200738 | 78 | 180 | 0.0 | 4.0 | 0.00 | 0.32 | 0.32 | 85 | 1014.5 |
| 20260904200233 | 79 | 118 | 0.0 | 2.0 | 0.00 | 0.32 | 0.32 | 84 | 1014.6 |
| 20260904195732 | 78 | 227 | 0.0 | 2.0 | 0.00 | 0.32 | 0.32 | 85 | 1014.8 |
| 20260904195231 | 78 | 164 | 0.0 | 2.0 | 0.00 | 0.32 | 0.32 | 86 | 1014.7 |
| 20260904194726 | 78 | 189 | 2.0 | 2.0 | 0.00 | 0.32 | 0.32 | 85 | 1014.8 |
| 20260904194225 | 77 | 167 | 0.0 | 2.0 | 0.00 | 0.32 | 0.32 | 87 | 1014.8 |
| 20260904193721 | 77 | 30 | 2.0 | 2.0 | 0.00 | 0.32 | 0.32 | 88 | 1015.0 |
| 20260904193217 | 76 | 303 | 0.0 | 4.0 | 0.00 | 0.32 | 0.32 | 88 | 1015.2 |
| 20260904192717 | 77 | 165 | 2.0 | 3.0 | 0.00 | 0.32 | 0.32 | 90 | 1015.2 |
| 20260904192212 | 76 | 317 | 0.0 | 2.0 | 0.00 | 0.32 | 0.32 | 91 | 1015.2 |
| 20260904191709 | 75 | 225 | 1.0 | 4.0 | 0.00 | 0.32 | 0.32 | 92 | 1015.2 |
| 20260904191205 | 75 | 317 | 0.0 | 3.0 | 0.00 | 0.32 | 0.32 | 92 | 1015.3 |
| 20260904190701 | 75 | 305 | 2.0 | 2.0 | 0.00 | 0.32 | 0.32 | 93 | 1015.2 |
| 20260904190157 | 75 | 38 | 0.0 | 1.0 | 0.00 | 0.32 | 0.32 | 95 | 1015.4 |
| 20260904185653 | 74 | 120 | 0.0 | 2.0 | 0.00 | 0.32 | 0.32 | 94 | 1015.4 |
| 20260904185148 | 74 | 208 | 0.0 | 2.0 | 0.00 | 0.32 | 0.32 | 93 | 1015.4 |
| 20260904184646 | 74 | 210 | 2.0 | 3.0 | 0.00 | 0.32 | 0.32 | 94 | 1015.5 |
| 20260904184142 | 74 | 214 | 1.0 | 2.0 | 0.00 | 0.32 | 0.32 | 94 | 1015.3 |
| 20260904183638 | 74 | 192 | 2.0 | 3.0 | 0.00 | 0.32 | 0.32 | 95 | 1015.4 |
| 20260904183137 | 73 | 143 | 0.0 | 3.0 | 0.00 | 0.32 | 0.32 | 96 | 1015.5 |
| 20260904182633 | 73 | 154 | 0.0 | 2.0 | 0.00 | 0.32 | 0.32 | 97 | 1015.7 |
| 20260904182128 | 73 | 143 | 0.0 | 3.0 | 0.00 | 0.32 | 0.32 | 97 | 1015.6 |
| 20260904181624 | 73 | 172 | 0.0 | 3.0 | 0.00 | 0.32 | 0.32 | 98 | 1015.7 |
| 20260904181118 | 73 | 197 | 0.0 | 2.0 | 0.00 | 0.32 | 0.32 | 98 | 1015.5 |
| 20260904180613 | 73 | 304 | 0.0 | 1.0 | 0.00 | 0.32 | 0.32 | 99 | 1015.7 |
| 20260904180109 | 73 | 91 | 0.0 | 1.0 | 0.00 | 0.32 | 0.32 | 99 | 1015.7 |
| 20260904175608 | 73 | 173 | 0.0 | 1.0 | 0.00 | 0.32 | 0.32 | 99 | 1015.7 |
| 20260904175106 | 72 | 40 | 0.0 | 1.0 | 0.00 | 0.32 | 0.32 | 99 | 1015.7 |
| 20260904174601 | 72 | 195 | 0.0 | 2.0 | 0.00 | 0.32 | 0.32 | 99 | 1015.8 |
| 20260904174058 | 72 | 154 | 0.0 | 1.0 | 0.00 | 0.32 | 0.32 | 99 | 1015.9 |
| 20260904173557 | 72 | 202 | 1.0 | 2.0 | 0.00 | 0.32 | 0.32 | 99 | 1016.0 |
| 20260904173053 | 72 | 156 | 0.0 | 3.0 | 0.00 | 0.32 | 0.32 | 99 | 1016.0 |
| 20260904172549 | 71 | 190 | 0.0 | 3.0 | 0.00 | 0.32 | 0.32 | 99 | 1015.9 |
| 20260904172048 | 72 | 176 | 1.0 | 3.0 | 0.00 | 0.32 | 0.32 | 99 | 1016.2 |
| 20260904171543 | 71 | 263 | 0.0 | 4.0 | 0.00 | 0.32 | 0.32 | 99 | 1016.1 |
| 20260904171039 | 72 | 198 | 2.0 | 3.0 | 0.00 | 0.32 | 0.32 | 99 | 1016.1 |
| 20260904170534 | 72 | 186 | 2.0 | 3.0 | 0.00 | 0.32 | 0.32 | 99 | 1016.0 |
| 20260904170031 | 72 | 262 | 0.0 | 2.0 | 0.00 | 0.32 | 0.32 | 99 | 1016.1 |
| 20260904165529 | 72 | 198 | 1.0 | 2.0 | 0.00 | 0.32 | 0.32 | 99 | 1016.1 |
| 20260904165029 | 72 | 235 | 0.0 | 2.0 | 0.00 | 0.32 | 0.32 | 99 | 1016.0 |
| 20260904164524 | 72 | 24 | 0.0 | 1.0 | 0.00 | 0.32 | 0.32 | 99 | 1015.8 |
| 20260904164020 | 72 | 333 | 0.0 | 0.0 | 0.00 | 0.32 | 0.32 | 99 | 1015.8 |
| 20260904163519 | 72 | 141 | 1.0 | 1.0 | 0.00 | 0.32 | 0.32 | 99 | 1015.6 |
| 20260904163015 | 72 | 192 | 0.0 | 1.0 | 0.00 | 0.32 | 0.32 | 99 | 1015.9 |
| 20260904162509 | 71 | 164 | 0.0 | 1.0 | 0.00 | 0.32 | 0.32 | 99 | 1015.8 |
| 20260904162005 | 71 | 117 | 0.0 | 1.0 | 0.00 | 0.32 | 0.32 | 99 | 1016.0 |
| 20260904161459 | 71 | 142 | 0.0 | 1.0 | 0.00 | 0.32 | 0.32 | 99 | 1016.2 |
| 20260904160955 | 70 | 99 | 0.0 | 2.0 | 0.00 | 0.32 | 0.32 | 99 | 1016.1 |
| 20260904160449 | 70 | 32 | 0.0 | 2.0 | 0.00 | 0.32 | 0.32 | 99 | 1015.9 |
| 20260904155944 | 70 | 75 | 0.0 | 2.0 | 0.00 | 0.32 | 0.32 | 99 | 1016.0 |
| 20260904155439 | 70 | 62 | 0.0 | 1.0 | 0.00 | 0.32 | 0.32 | 99 | 1016.2 |
| 20260904154937 | 69 | 49 | 0.0 | 1.0 | 0.00 | 0.32 | 0.32 | 99 | 1016.7 |
| 20260904154432 | 69 | 304 | 0.0 | 1.0 | 0.00 | 0.32 | 0.32 | 99 | 1016.9 |
| 20260904153927 | 69 | 241 | 0.0 | 1.0 | 0.00 | 0.32 | 0.32 | 99 | 1016.8 |
| 20260904153422 | 69 | 177 | 0.0 | 1.0 | 0.00 | 0.32 | 0.32 | 99 | 1016.8 |
| 20260904152919 | 69 | 135 | 0.0 | 2.0 | 0.00 | 0.32 | 0.32 | 99 | 1016.8 |
| 20260904152414 | 68 | 148 | 1.0 | 3.0 | 0.00 | 0.32 | 0.32 | 99 | 1016.8 |
| 20260904151913 | 69 | 158 | 0.0 | 3.0 | 0.00 | 0.32 | 0.32 | 99 | 1017.6 |
| 20260904151408 | 69 | 176 | 2.0 | 3.0 | 0.00 | 0.32 | 0.32 | 99 | 1017.8 |
| 20260904150904 | 69 | 157 | 0.0 | 2.0 | 0.02 | 0.32 | 0.32 | 99 | 1017.7 |
| 20260904150359 | 69 | 193 | 0.0 | 2.0 | 0.02 | 0.32 | 0.32 | 99 | 1017.7 |
| 20260904145856 | 69 | 191 | 0.0 | 2.0 | 0.05 | 0.31 | 0.31 | 99 | 1017.5 |
| 20260904145353 | 68 | 13 | 0.0 | 2.0 | 0.05 | 0.31 | 0.31 | 99 | 1017.5 |
| 20260904144848 | 68 | 185 | 0.0 | 2.0 | 0.07 | 0.30 | 0.30 | 99 | 1017.6 |
| 20260904144344 | 68 | 211 | 0.0 | 3.0 | 0.02 | 0.29 | 0.29 | 99 | 1017.3 |
| 20260904143839 | 68 | 228 | 0.0 | 2.0 | 0.02 | 0.29 | 0.29 | 99 | 1017.3 |
| 20260904143336 | 68 | 220 | 1.0 | 3.0 | 0.02 | 0.29 | 0.29 | 99 | 1016.9 |
| 20260904142832 | 68 | 216 | 2.0 | 3.0 | 0.02 | 0.29 | 0.29 | 99 | 1017.0 |
| 20260904142327 | 68 | 178 | 0.0 | 2.0 | 0.02 | 0.28 | 0.28 | 99 | 1016.8 |
| 20260904141822 | 68 | 136 | 0.0 | 2.0 | 0.05 | 0.28 | 0.28 | 99 | 1016.4 |
| 20260904141317 | 68 | 141 | 0.0 | 2.0 | 0.07 | 0.28 | 0.28 | 99 | 1016.6 |
| 20260904140813 | 68 | 119 | 0.0 | 2.0 | 0.17 | 0.28 | 0.28 | 99 | 1016.9 |
| 20260904140308 | 68 | 166 | 0.0 | 2.0 | 0.19 | 0.26 | 0.26 | 99 | 1017.3 |
| 20260904135807 | 68 | 184 | 1.0 | 3.0 | 0.21 | 0.25 | 0.25 | 99 | 1017.5 |
| 20260904135305 | 68 | 104 | 0.0 | 1.0 | 0.21 | 0.23 | 0.23 | 99 | 1017.7 |
| 20260904134759 | 68 | 67 | 0.0 | 2.0 | 0.24 | 0.21 | 0.21 | 99 | 1017.7 |
| 20260904134258 | 68 | 269 | 0.0 | 1.0 | 0.26 | 0.19 | 0.19 | 99 | 1017.8 |
| 20260904133753 | 68 | 107 | 0.0 | 1.0 | 0.17 | 0.16 | 0.16 | 99 | 1017.9 |
| 20260904133249 | 68 | 125 | 0.0 | 1.0 | 0.12 | 0.14 | 0.14 | 99 | 1017.6 |
| 20260904132748 | 68 | 31 | 0.0 | 2.0 | 0.05 | 0.13 | 0.13 | 99 | 1017.8 |
| 20260904132244 | 68 | 70 | 0.0 | 1.0 | 0.02 | 0.12 | 0.12 | 99 | 1017.7 |
| 20260904131742 | 68 | 322 | 0.0 | 2.0 | 0.00 | 0.12 | 0.12 | 99 | 1018.0 |
| 20260904131239 | 68 | 26 | 1.0 | 2.0 | 0.00 | 0.12 | 0.12 | 99 | 1018.0 |
| 20260904130738 | 68 | 19 | 0.0 | 2.0 | 0.00 | 0.12 | 0.12 | 99 | 1017.7 |
| 20260904130238 | 68 | 62 | 0.0 | 1.0 | 0.02 | 0.12 | 0.12 | 99 | 1017.3 |
| 20260904125734 | 68 | 309 | 0.0 | 1.0 | 0.02 | 0.12 | 0.12 | 99 | 1016.9 |
| 20260904125229 | 68 | 76 | 2.0 | 2.0 | 0.00 | 0.11 | 0.11 | 99 | 1016.8 |
| 20260904124724 | 68 | 15 | 0.0 | 2.0 | 0.00 | 0.11 | 0.11 | 99 | 1016.9 |
| 20260904124220 | 68 | 308 | 0.0 | 2.0 | 0.00 | 0.11 | 0.11 | 99 | 1016.5 |
| 20260904123715 | 68 | 279 | 1.0 | 3.0 | 0.02 | 0.11 | 0.11 | 99 | 1016.8 |
| 20260904123210 | 68 | 82 | 2.0 | 3.0 | 0.02 | 0.11 | 0.11 | 99 | 1017.1 |
| 20260904122710 | 68 | 315 | 2.0 | 2.0 | 0.00 | 0.11 | 0.11 | 99 | 1017.4 |
| 20260904122205 | 68 | 98 | 0.0 | 3.0 | 0.02 | 0.11 | 0.11 | 99 | 1017.3 |
| 20260904121700 | 68 | 202 | 0.0 | 3.0 | 0.14 | 0.11 | 0.11 | 99 | 1016.7 |
| 20260904121155 | 68 | 351 | 0.0 | 2.0 | 0.07 | 0.10 | 0.10 | 99 | 1016.3 |
| 20260904120652 | 67 | 326 | 2.0 | 2.0 | 0.02 | 0.09 | 0.09 | 99 | 1016.4 |
| 20260904120148 | 67 | 339 | 0.0 | 3.0 | 0.05 | 0.09 | 0.09 | 99 | 1016.0 |
| 20260904115643 | 67 | 176 | 1.0 | 5.0 | 0.09 | 0.08 | 0.08 | 99 | 1016.6 |
| 20260904115137 | 67 | 177 | 2.0 | 3.0 | 0.05 | 0.07 | 0.07 | 99 | 1016.9 |
| 20260904114632 | 67 | 190 | 2.0 | 3.0 | 0.00 | 0.07 | 0.07 | 99 | 1017.1 |
| 20260904114131 | 67 | 247 | 1.0 | 4.0 | 0.00 | 0.07 | 0.07 | 99 | 1016.7 |
| 20260904113626 | 67 | 172 | 0.0 | 2.0 | 0.00 | 0.07 | 0.07 | 99 | 1016.3 |
| 20260904113125 | 67 | 60 | 0.0 | 2.0 | 0.00 | 0.07 | 0.07 | 99 | 1016.4 |
| 20260904112621 | 67 | 52 | 3.0 | 3.0 | 0.02 | 0.07 | 0.07 | 99 | 1016.1 |
| 20260904112117 | 67 | 269 | 0.0 | 2.0 | 0.07 | 0.07 | 0.07 | 99 | 1016.1 |
| 20260904111612 | 67 | 76 | 0.0 | 2.0 | 0.35 | 0.06 | 0.06 | 99 | 1016.2 |
| 20260904111108 | 67 | 311 | 0.0 | 1.0 | 0.31 | 0.05 | 0.05 | 99 | 1016.6 |
| 20260904110603 | 67 | 104 | 1.0 | 2.0 | 0.00 | 0.00 | 0.00 | 99 | 1017.0 |
| 20260904110058 | 67 | 352 | 0.0 | 2.0 | 0.00 | 0.00 | 0.00 | 99 | 1016.5 |
| 20260904105557 | 67 | 135 | 0.0 | 1.0 | 0.00 | 0.00 | 0.00 | 99 | 1016.1 |
| 20260904105052 | 67 | 129 | 0.0 | 1.0 | 0.00 | 0.00 | 0.00 | 99 | 1016.1 |
| 20260904104548 | 67 | 6 | 1.0 | 2.0 | 0.00 | 0.00 | 0.00 | 99 | 1016.1 |
| 20260904104043 | 67 | 15 | 0.0 | 1.0 | 0.00 | 0.00 | 0.00 | 99 | 1015.9 |
| 20260904103539 | 67 | 32 | 0.0 | 1.0 | 0.00 | 0.00 | 0.00 | 99 | 1015.9 |
| 20260904103035 | 67 | 19 | 0.0 | 1.0 | 0.00 | 0.00 | 0.00 | 99 | 1015.9 |
| 20260904102530 | 67 | 76 | 1.0 | 1.0 | 0.00 | 0.00 | 0.00 | 99 | 1015.8 |
| 20260904102025 | 67 | 351 | 0.0 | 3.0 | 0.00 | 0.00 | 0.00 | 99 | 1015.8 |
| 20260904101522 | 67 | 62 | 0.0 | 1.0 | 0.00 | 0.00 | 0.00 | 99 | 1015.6 |
| 20260904101017 | 67 | 22 | 0.0 | 0.0 | 0.00 | 0.00 | 0.00 | 99 | 1015.5 |
| 20260904100513 | 67 | 351 | 1.0 | 3.0 | 0.00 | 0.00 | 0.00 | 99 | 1015.3 |
| 20260904100008 | 67 | 110 | 0.0 | 1.0 | 0.00 | 0.00 | 0.00 | 99 | 1015.1 |
| 20260904095502 | 67 | 43 | 0.0 | 1.0 | 0.00 | 0.00 | 0.00 | 99 | 1015.0 |
| 20260904094957 | 67 | 89 | 0.0 | 1.0 | 0.00 | 0.00 | 0.00 | 99 | 1015.0 |
| 20260904094452 | 67 | 3 | 1.0 | 1.0 | 0.00 | 0.00 | 0.00 | 99 | 1015.1 |
| 20260904093948 | 67 | 336 | 0.0 | 1.0 | 0.00 | 0.00 | 0.00 | 99 | 1015.2 |
| 20260904093444 | 67 | 50 | 0.0 | 1.0 | 0.00 | 0.00 | 0.00 | 99 | 1015.2 |
| 20260904092939 | 67 | 55 | 0.0 | 1.0 | 0.00 | 0.00 | 0.00 | 99 | 1015.4 |
| 20260904092435 | 67 | 113 | 0.0 | 1.0 | 0.00 | 0.00 | 0.00 | 99 | 1015.2 |
| 20260904091931 | 67 | 57 | 0.0 | 2.0 | 0.00 | 0.00 | 0.00 | 99 | 1015.6 |
| 20260904091426 | 67 | 44 | 0.0 | 3.0 | 0.00 | 0.00 | 0.00 | 99 | 1015.5 |
| 20260904090921 | 67 | 20 | 0.0 | 2.0 | 0.00 | 0.00 | 0.00 | 99 | 1015.4 |
| 20260904090417 | 67 | 75 | 0.0 | 2.0 | 0.00 | 0.00 | 0.00 | 99 | 1015.6 |
| 20260904085912 | 67 | 44 | 0.0 | 1.0 | 0.00 | 0.00 | 0.00 | 99 | 1015.8 |
| 20260904085407 | 67 | 105 | 0.0 | 2.0 | 0.00 | 0.00 | 0.00 | 99 | 1015.9 |
| 20260904084901 | 67 | 67 | 0.0 | 2.0 | 0.00 | 0.00 | 0.00 | 99 | 1016.1 |
| 20260904084358 | 67 | 44 | 0.0 | 2.0 | 0.00 | 0.00 | 0.00 | 99 | 1016.1 |
| 20260904083852 | 67 | 304 | 0.0 | 1.0 | 0.00 | 0.00 | 0.00 | 99 | 1015.9 |
| 20260904083349 | 67 | 44 | 0.0 | 1.0 | 0.00 | 0.00 | 0.00 | 99 | 1016.1 |
| 20260904082839 | 67 | 15 | 0.0 | 0.0 | 0.00 | 0.00 | 0.00 | 99 | 1016.0 |
| 20260904082333 | 67 | 76 | 0.0 | 1.0 | 0.00 | 0.00 | 0.00 | 99 | 1015.7 |
| 20260904081828 | 67 | 38 | 0.0 | 1.0 | 0.00 | 0.00 | 0.00 | 99 | 1016.2 |
| 20260904081324 | 67 | 89 | 0.0 | 1.0 | 0.00 | 0.00 | 0.00 | 99 | 1016.3 |
| 20260904080821 | 67 | 129 | 0.0 | 1.0 | 0.00 | 0.00 | 0.00 | 99 | 1015.8 |
| 20260904080315 | 66 | 72 | 0.0 | 2.0 | 0.00 | 0.00 | 0.00 | 99 | 1016.1 |
| 20260904075812 | 66 | 89 | 0.0 | 0.0 | 0.00 | 0.00 | 0.00 | 99 | 1016.1 |
| 20260904075307 | 67 | 49 | 0.0 | 1.0 | 0.00 | 0.00 | 0.00 | 99 | 1016.2 |
| 20260904074805 | 66 | 62 | 0.0 | 1.0 | 0.00 | 0.00 | 0.00 | 99 | 1016.2 |
| 20260904074300 | 67 | 66 | 0.0 | 1.0 | 0.00 | 0.00 | 0.00 | 99 | 1016.0 |
| 20260904073756 | 67 | 66 | 0.0 | 2.0 | 0.00 | 0.00 | 0.00 | 99 | 1016.0 |
| 20260904073251 | 67 | 62 | 0.0 | 0.0 | 0.00 | 0.00 | 0.00 | 99 | 1015.8 |
| 20260904072748 | 67 | 62 | 0.0 | 0.0 | 0.00 | 0.00 | 0.00 | 99 | 1015.7 |
| 20260904072246 | 67 | 62 | 0.0 | 1.0 | 0.00 | 0.00 | 0.00 | 99 | 1015.7 |
| 20260904071743 | 67 | 89 | 0.0 | 0.0 | 0.00 | 0.00 | 0.00 | 99 | 1015.8 |
| 20260904071237 | 67 | 310 | 0.0 | 0.0 | 0.00 | 0.00 | 0.00 | 99 | 1015.8 |
| 20260904070732 | 67 | 129 | 0.0 | 1.0 | 0.00 | 0.00 | 0.00 | 99 | 1015.8 |
| 20260904070231 | 67 | 115 | 0.0 | 1.0 | 0.00 | 0.00 | 0.00 | 99 | 1016.0 |
| 20260904065726 | 67 | 117 | 0.0 | 2.0 | 0.00 | 0.00 | 0.00 | 99 | 1016.1 |
| 20260904065223 | 67 | 37 | 0.0 | 0.0 | 0.00 | 0.00 | 0.00 | 99 | 1016.4 |
| 20260904064722 | 67 | 37 | 0.0 | 0.0 | 0.00 | 0.00 | 0.00 | 99 | 1016.5 |
| 20260904064218 | 67 | 37 | 0.0 | 0.0 | 0.00 | 0.00 | 0.00 | 99 | 1016.8 |
| 20260904063714 | 67 | 62 | 0.0 | 2.0 | 0.00 | 0.00 | 0.00 | 99 | 1016.9 |
| 20260904063210 | 67 | 15 | 0.0 | 1.0 | 0.00 | 0.00 | 0.00 | 99 | 1016.8 |